Weather History for KRDD - December, 2013

Change the Weather History Date:

Sunday, December 22, 2013

  Actual Average Record
Temperature  
Mean Temperature 58 °F -  
Max Temperature 73 °F 54 °F 73 °F (2013)
Min Temperature 42 °F 36 °F 20 °F (1990)
Degree Days  
Heating Degree Days 7    
Cooling Degree Days 0    
Growing Degree Days 8 (Base 50)    
Moisture  
Dew Point 38 °F    
Average Humidity 51    
Maximum Humidity 70    
Minimum Humidity 31    
Precipitation  
Precipitation 0.00 in 0.21 in 1.07 in (2005)
Month to date precipitation 0.38 4.32  
Year to date precipitation 12.80 32.67  
Since 1 July precipitation 3.50 11.81  
Sea Level Pressure  
Sea Level Pressure 30.23 in    
Wind  
Wind Speed 6 mph (NNW)    
Max Wind Speed 13 mph    
Max Gust Speed 16 mph    
Visibility 10 miles    
Events      
T = Trace of Precipitation, MM = Missing Value Source: NWS Daily Summary

Daily Weather History Graph

Daily Weather History Graph

Search for Another Location

Airport or City:

Trip Planner

Search our weather history database for the weather conditions in past years. The results will help you decide how hot, cold, wet, or windy it might be!

Date:

Astronomy

Dec. 22, 2013 Rise Set
Actual Time 7:29 AM PST 4:46 PM PST
Civil Twilight 6:58 AM PST 5:17 PM PST
Nautical Twilight 6:24 AM PST 5:51 PM PST
Astronomical Twilight 5:51 AM PST 6:24 PM PST
Moon 10:05 PM PST (12/22) 10:27 AM PST (12/22)
Length of Visible Light 10h 18m
Length of Day
9h 16m
Waning Gibbous, 76% of the Moon is Illuminated
Dec 22
Waning Gibbous
Dec 25
Last Quarter
Jan 1
New
Jan 7
First Quarter
Jan 15
Full

Hourly Weather History & Observations

Time (PST) Temp. Windchill Dew Point Humidity Pressure Visibility Wind Dir Wind Speed Gust Speed Precip Events Conditions
12:53 AM 50.0 °F - 35.1 °F 57% 30.14 in 10.0 mi NW 5.8 mph - N/A   Clear
1:53 AM 48.9 °F - 35.1 °F 59% 30.15 in 10.0 mi Calm Calm - N/A   Clear
2:53 AM 46.9 °F - 35.1 °F 63% 30.16 in 10.0 mi NW 5.8 mph - N/A   Clear
3:53 AM 48.0 °F - 35.1 °F 61% 30.17 in 10.0 mi NW 8.1 mph - N/A   Clear
4:53 AM 48.0 °F - 35.1 °F 61% 30.18 in 10.0 mi NW 6.9 mph - N/A   Clear
5:53 AM 46.0 °F 43.1 °F 35.1 °F 66% 30.20 in 10.0 mi WNW 5.8 mph - N/A   Clear
6:53 AM 45.0 °F 41.8 °F 35.1 °F 68% 30.22 in 10.0 mi NW 5.8 mph - N/A   Clear
7:53 AM 46.9 °F - 36.0 °F 66% 30.24 in 10.0 mi NW 4.6 mph - N/A   Clear
8:53 AM 53.1 °F - 37.0 °F 55% 30.25 in 10.0 mi Calm Calm - N/A   Clear
9:53 AM 57.9 °F - 39.0 °F 49% 30.27 in 10.0 mi NNW 5.8 mph - N/A   Clear
10:53 AM 64.0 °F - 39.9 °F 41% 30.27 in 10.0 mi North 5.8 mph - N/A   Clear
11:53 AM 69.1 °F - 39.9 °F 35% 30.25 in 10.0 mi North 5.8 mph - N/A   Clear
12:53 PM 71.1 °F - 41.0 °F 34% 30.22 in 10.0 mi North 6.9 mph - N/A   Clear
1:53 PM 72.0 °F - 41.0 °F 33% 30.20 in 10.0 mi North 6.9 mph - N/A   Clear
2:53 PM 73.0 °F - 41.0 °F 31% 30.20 in 10.0 mi NNE 8.1 mph - N/A   Clear
3:53 PM 71.1 °F - 41.0 °F 34% 30.21 in 10.0 mi NNE 11.5 mph - N/A   Clear
4:53 PM 66.9 °F - 39.9 °F 37% 30.22 in 10.0 mi North 5.8 mph - N/A   Clear
5:53 PM 64.0 °F - 39.9 °F 41% 30.24 in 10.0 mi North 9.2 mph - N/A   Clear
6:53 PM 60.1 °F - 42.1 °F 51% 30.25 in 10.0 mi NNW 6.9 mph - N/A   Clear
7:53 PM 55.9 °F - 42.1 °F 60% 30.27 in 10.0 mi NNW 4.6 mph - N/A   Clear
8:53 PM 53.1 °F - 39.9 °F 61% 30.27 in 10.0 mi NNE 6.9 mph - N/A   Clear
9:53 PM 48.9 °F - 37.9 °F 66% 30.28 in 10.0 mi ENE 3.5 mph - N/A   Clear
10:53 PM 50.0 °F - 39.0 °F 66% 30.29 in 10.0 mi North 5.8 mph - N/A   Clear
11:53 PM 46.0 °F - 37.9 °F 73% 30.29 in 10.0 mi Calm Calm - N/A   Clear